Total_Precipitation_Accumulation
0.79 0.76 0.76 0.69 0.69 0.71 0.76 0.90 1.08 0.90 0.50 0.34 0.35 0.38 0.38 0.44 0.52 0.50 0.46 0.50 0.57 0.65 0.72 0.80 0.88 1.00 1.33 2.02 3.05 3.79 3.70 3.04 2.33 1.97 2.04 2.39 2.92 3.43
0.86 0.84 0.82 0.78 0.75 0.76 0.79 0.79 0.86 0.95 0.72 0.36 0.33 0.37 0.43 0.45 0.54 0.52 0.52 0.60 0.61 0.63 0.68 0.71 0.79 0.94 1.09 1.38 2.01 3.00 3.66 3.59 2.99 2.43 2.26 2.42 2.71 3.24
0.91 0.91 0.87 0.83 0.83 0.79 0.79 0.77 0.74 0.82 0.83 0.44 0.33 0.39 0.49 0.55 0.58 0.58 0.60 0.60 0.58 0.62 0.67 0.72 0.76 0.87 1.02 1.21 1.48 2.11 3.04 3.58 3.59 3.12 2.75 2.62 2.64 2.81
1.05 1.03 0.99 0.97 0.99 0.93 0.88 0.82 0.75 0.73 0.83 0.67 0.42 0.41 0.51 0.61 0.69 0.71 0.69 0.67 0.63 0.71 0.74 0.75 0.78 0.83 0.96 1.13 1.32 1.62 2.23 3.01 3.52 3.48 3.10 2.77 2.62 2.69
1.34 1.31 1.24 1.19 1.21 1.15 1.07 0.95 0.83 0.76 0.77 0.78 0.58 0.48 0.54 0.66 0.83 0.85 0.82 0.78 0.71 0.78 0.82 0.82 0.83 0.83 0.89 1.04 1.21 1.39 1.65 2.06 2.64 3.20 3.40 3.14 2.80 2.68
1.55 1.52 1.54 1.50 1.45 1.39 1.35 1.15 0.97 0.91 0.87 0.88 0.76 0.62 0.62 0.71 0.96 1.07 1.04 0.97 0.90 0.82 0.84 0.85 0.88 0.89 0.88 0.90 0.99 1.13 1.37 1.73 2.16 2.73 3.29 3.42 3.08 2.80
1.37 1.35 1.44 1.58 1.64 1.65 1.63 1.45 1.29 1.26 1.18 1.14 1.01 0.85 0.78 0.87 1.06 1.15 1.22 1.17 1.17 1.00 0.85 0.80 0.81 0.81 0.82 0.87 0.94 1.02 1.19 1.42 1.72 2.19 2.78 3.30 3.34 3.13
1.24 1.18 1.20 1.33 1.41 1.47 1.58 1.60 1.62 1.68 1.62 1.46 1.28 1.11 0.92 0.88 1.01 1.28 1.41 1.50 1.52 1.22 1.05 0.97 0.86 0.87 0.87 0.85 0.88 0.92 1.07 1.32 1.57 1.85 2.24 2.76 3.20 3.32
1.08 1.07 1.07 1.10 1.20 1.12 1.23 1.37 1.48 1.64 1.75 1.71 1.63 1.29 1.05 0.97 1.14 1.40 1.51 1.59 1.51 1.35 1.34 1.41 1.17 1.04 0.97 0.97 0.98 0.91 1.01 1.21 1.43 1.65 1.90 2.24 2.70 3.14
1.11 1.01 0.96 0.97 1.10 1.16 1.20 1.20 1.17 1.29 1.53 1.67 1.74 1.52 1.29 1.25 1.46 1.70 1.84 1.87 1.72 1.61 1.57 1.70 1.42 1.22 1.14 1.09 1.06 0.96 0.96 1.08 1.26 1.44 1.66 1.88 2.21 2.62
1.24 1.16 1.06 0.94 1.16 1.28 1.20 1.13 1.03 1.08 1.24 1.50 1.67 1.67 1.65 1.69 1.84 2.09 2.22 2.27 2.15 1.85 1.71 1.77 1.62 1.41 1.36 1.36 1.25 1.12 0.99 1.00 1.10 1.24 1.38 1.57 1.80 2.15
1.26 1.23 1.30 1.22 1.29 1.25 1.11 1.13 1.14 1.02 0.99 1.08 1.16 1.25 1.27 1.31 1.59 1.82 1.97 2.14 2.12 2.11 1.82 1.75 1.79 1.72 1.85 1.60 1.34 1.10 0.97 0.96 0.99 1.05 1.12 1.25 1.43 1.58
1.28 1.23 1.23 1.35 1.29 1.21 1.15 1.11 1.21 1.06 0.95 1.01 1.03 1.05 1.08 1.16 1.26 1.45 1.68 1.87 2.02 2.02 1.77 1.82 2.06 1.89 1.91 1.81 1.55 1.24 0.96 0.83 0.83 0.95 1.03 1.13 1.21 1.24
1.23 1.10 1.12 1.27 1.26 1.25 1.17 1.21 1.27 1.22 1.11 1.09 1.02 0.96 0.99 1.08 1.16 1.27 1.45 1.60 1.69 1.75 1.65 1.78 2.19 2.05 1.91 1.70 1.55 1.43 1.15 0.90 0.78 0.80 0.87 1.10 1.17 1.20
1.32 1.35 1.30 1.31 1.26 1.14 1.12 1.18 1.19 1.16 1.20 1.16 1.00 0.90 0.90 1.00 1.09 1.20 1.29 1.40 1.51 1.58 1.67 1.72 1.96 2.08 2.05 1.82 1.45 1.35 1.33 1.19 0.90 0.81 0.82 0.84 0.89 1.00
1.41 1.41 1.39 1.38 1.28 1.20 1.19 1.10 1.03 1.09 1.16 1.11 1.00 0.95 0.92 0.98 1.07 1.18 1.29 1.34 1.51 1.56 1.63 1.72 1.86 2.13 2.16 1.75 1.52 1.37 1.19 1.27 1.12 0.84 0.78 0.81 0.81 0.78
1.42 1.43 1.37 1.32 1.30 1.20 1.11 1.05 1.03 1.08 1.11 1.03 1.03 1.06 1.03 1.03 1.07 1.10 1.25 1.34 1.46 1.45 1.58 1.78 1.87 2.02 2.10 1.97 1.80 1.46 1.18 1.07 1.02 0.87 0.81 0.90 0.95 0.88
1.41 1.34 1.18 1.10 1.10 1.06 1.03 1.01 1.00 1.01 0.96 0.97 1.01 1.04 1.06 1.06 1.08 1.09 1.19 1.32 1.38 1.34 1.43 1.65 1.87 2.13 2.28 2.26 2.03 1.61 1.30 1.13 1.06 0.95 0.82 0.88 1.04 1.04
1.18 1.05 0.93 0.94 0.95 0.90 0.88 0.87 0.86 0.84 0.87 0.93 0.96 0.99 1.03 1.07 1.10 1.13 1.18 1.25 1.28 1.29 1.37 1.52 1.80 2.09 2.18 2.17 2.25 1.89 1.51 1.28 1.22 1.20 1.02 0.86 0.92 0.99
0.96 0.94 0.89 0.84 0.85 0.83 0.79 0.78 0.77 0.78 0.86 0.92 0.92 0.91 0.95 1.03 1.06 1.07 1.10 1.18 1.25 1.30 1.36 1.44 1.68 1.94 2.03 1.88 1.95 2.04 1.95 1.58 1.34 1.34 1.22 1.03 0.98 1.12
0.92 0.86 0.84 0.83 0.81 0.78 0.76 0.77 0.78 0.79 0.81 0.88 0.91 0.89 0.90 0.97 1.00 0.97 1.01 1.12 1.23 1.29 1.30 1.30 1.47 1.75 1.90 1.82 1.74 1.77 1.94 1.98 1.61 1.37 1.26 1.25 1.25 1.30
0.89 0.88 0.84 0.84 0.83 0.80 0.80 0.81 0.81 0.78 0.77 0.80 0.82 0.85 0.87 0.92 0.95 0.92 0.96 1.04 1.09 1.13 1.18 1.22 1.35 1.68 1.95 1.96 1.78 1.65 1.80 2.01 2.06 1.76 1.45 1.32 1.39 1.52
0.91 0.91 0.88 0.84 0.80 0.78 0.78 0.77 0.76 0.73 0.71 0.72 0.74 0.77 0.81 0.87 0.86 0.87 0.89 0.93 0.98 1.03 1.12 1.23 1.34 1.58 1.86 1.94 1.86 1.69 1.67 1.77 1.88 1.87 1.85 1.56 1.13 0.92